When you browse on this site, cookies collect data to enhance your experience and personalize the content and advertising you see.
Visit our Privacy Policy to learn more. By continuing to use the site, you agree to this use of cookies and data.
  • Em Portugal
  • Lista de países
  • Para 7 dias
  • Temperatura da água
  • Mapas de satélite
  • Mapa do tempo
  • Widgets de tempo
  • user-avatar
    Iniciar Sessão

    Previsão horária em Slavyansk

    Hoje, 23 Maio, Quinta-feira

    Tempo Temperatura Precipitação Vento Pressão Humidade
    00:00 +16°C° 0.1 mm 2 m/s 751 mmHg 93%
    01:00 +15°C° 0 mm 2 m/s 751 mmHg 94%
    02:00 +15°C° 0 mm 2 m/s 751 mmHg 94%
    03:00 +14°C° 0 mm 2 m/s 750 mmHg 94%
    04:00 +14°C° 0 mm 2 m/s 750 mmHg 94%
    05:00 +14°C° 0 mm 2 m/s 750 mmHg 93%
    06:00 +14°C° 0 mm 2 m/s 750 mmHg 92%
    07:00 +16°C° 0 mm 2 m/s 750 mmHg 86%
    08:00 +18°C° 0 mm 2 m/s 750 mmHg 79%
    09:00 +19°C° 0 mm 3 m/s 750 mmHg 73%
    10:00 +21°C° 0.1 mm 3 m/s 750 mmHg 68%
    11:00 +22°C° 0.1 mm 3 m/s 749 mmHg 62%
    12:00 +24°C° 0.1 mm 3 m/s 749 mmHg 57%
    13:00 +24°C° 0.2 mm 3 m/s 749 mmHg 55%
    14:00 +25°C° 0.2 mm 3 m/s 749 mmHg 54%
    15:00 +25°C° 0.2 mm 3 m/s 749 mmHg 53%
    16:00 +25°C° 0.3 mm 3 m/s 749 mmHg 56%
    17:00 +24°C° 0.3 mm 2 m/s 749 mmHg 59%
    18:00 +24°C° 0.3 mm 2 m/s 749 mmHg 62%
    19:00 +21°C° 0.2 mm 2 m/s 749 mmHg 68%
    20:00 +20°C° 0.2 mm 2 m/s 749 mmHg 75%
    21:00 +18°C° 0.2 mm 2 m/s 750 mmHg 82%
    22:00 +17°C° 0 mm 2 m/s 750 mmHg 84%
    23:00 +17°C° 0 mm 2 m/s 750 mmHg 86%

    Amanhã, 24 Maio, Sexta-feira

    Tempo Temperatura Precipitação Vento Pressão Humidade
    00:00 +16°C° 0 mm 2 m/s 750 mmHg 87%
    01:00 +16°C° 0 mm 2 m/s 750 mmHg 88%
    02:00 +16°C° 0 mm 2 m/s 750 mmHg 89%
    03:00 +16°C° 0 mm 1 m/s 750 mmHg 90%
    04:00 +16°C° 0 mm 1 m/s 750 mmHg 89%
    05:00 +16°C° 0 mm 1 m/s 750 mmHg 88%
    06:00 +18°C° 0 mm 1 m/s 750 mmHg 88%
    07:00 +19°C° 0 mm 1 m/s 751 mmHg 81%
    08:00 +20°C° 0 mm 2 m/s 751 mmHg 74%
    09:00 +23°C° 0 mm 2 m/s 751 mmHg 68%
    10:00 +24°C° 0.5 mm 2 m/s 751 mmHg 63%
    11:00 +25°C° 0.5 mm 2 m/s 751 mmHg 58%
    12:00 +26°C° 0.5 mm 2 m/s 751 mmHg 54%
    13:00 +27°C° 0.4 mm 1 m/s 751 mmHg 51%
    14:00 +27°C° 0.4 mm 1 m/s 751 mmHg 49%
    15:00 +28°C° 0.4 mm 1 m/s 750 mmHg 47%
    16:00 +27°C° 0 mm 1 m/s 750 mmHg 52%
    17:00 +26°C° 0 mm 2 m/s 750 mmHg 58%
    18:00 +25°C° 0 mm 2 m/s 750 mmHg 64%
    19:00 +24°C° 0.1 mm 2 m/s 750 mmHg 68%
    20:00 +21°C° 0.1 mm 2 m/s 750 mmHg 72%
    21:00 +20°C° 0.1 mm 2 m/s 750 mmHg 76%
    22:00 +19°C° 0.1 mm 2 m/s 751 mmHg 78%
    23:00 +19°C° 0.1 mm 2 m/s 751 mmHg 80%

    Depois de amanhã, 25 Maio, Sábado

    Tempo Temperatura Precipitação Vento Pressão Humidade
    00:00 +18°C° 0.1 mm 2 m/s 751 mmHg 83%
    01:00 +17°C° 0 mm 2 m/s 750 mmHg 84%
    02:00 +17°C° 0 mm 2 m/s 750 mmHg 85%
    03:00 +16°C° 0 mm 2 m/s 750 mmHg 87%
    04:00 +16°C° 0 mm 2 m/s 750 mmHg 85%
    05:00 +16°C° 0 mm 2 m/s 750 mmHg 84%
    06:00 +17°C° 0 mm 2 m/s 750 mmHg 83%
    07:00 +18°C° 0 mm 2 m/s 750 mmHg 76%
    08:00 +21°C° 0 mm 1 m/s 750 mmHg 69%
    09:00 +22°C° 0 mm 1 m/s 751 mmHg 62%
    10:00 +24°C° 0 mm 2 m/s 750 mmHg 58%
    11:00 +25°C° 0 mm 3 m/s 750 mmHg 54%
    12:00 +27°C° 0 mm 3 m/s 750 mmHg 49%
    13:00 +27°C° 0 mm 3 m/s 750 mmHg 49%
    14:00 +27°C° 0 mm 3 m/s 749 mmHg 49%
    15:00 +27°C° 0 mm 3 m/s 749 mmHg 48%
    16:00 +27°C° 0 mm 2 m/s 749 mmHg 51%
    17:00 +27°C° 0 mm 2 m/s 748 mmHg 53%
    18:00 +26°C° 0 mm 1 m/s 748 mmHg 55%
    19:00 +24°C° 1 mm 1 m/s 748 mmHg 64%
    20:00 +22°C° 1 mm 1 m/s 748 mmHg 72%
    21:00 +20°C° 1 mm 1 m/s 748 mmHg 81%
    22:00 +19°C° 0.6 mm 1 m/s 748 mmHg 83%
    23:00 +18°C° 0.6 mm 2 m/s 748 mmHg 85%

    26 Maio, Domingo

    Tempo Temperatura Precipitação Vento Pressão Humidade
    00:00 +18°C° 0.6 mm 2 m/s 748 mmHg 88%
    01:00 +17°C° 0.5 mm 2 m/s 748 mmHg 89%
    02:00 +17°C° 0.5 mm 3 m/s 748 mmHg 89%
    03:00 +17°C° 0.5 mm 3 m/s 748 mmHg 90%
    04:00 +17°C° 0.1 mm 3 m/s 748 mmHg 90%
    05:00 +17°C° 0.1 mm 3 m/s 748 mmHg 90%
    06:00 +17°C° 0.1 mm 3 m/s 748 mmHg 90%
    07:00 +18°C° 0.4 mm 4 m/s 748 mmHg 86%
    08:00 +19°C° 0.4 mm 4 m/s 748 mmHg 82%
    09:00 +21°C° 0.4 mm 5 m/s 749 mmHg 77%
    10:00 +22°C° 0.6 mm 5 m/s 749 mmHg 71%
    11:00 +23°C° 0.6 mm 5 m/s 749 mmHg 65%
    12:00 +25°C° 0.6 mm 5 m/s 749 mmHg 59%
    13:00 +26°C° 0.3 mm 6 m/s 749 mmHg 59%
    14:00 +26°C° 0.3 mm 6 m/s 749 mmHg 58%
    15:00 +26°C° 0.3 mm 6 m/s 749 mmHg 58%
    16:00 +26°C° 0.7 mm 6 m/s 749 mmHg 62%
    17:00 +25°C° 0.7 mm 5 m/s 749 mmHg 65%
    18:00 +25°C° 0.7 mm 4 m/s 749 mmHg 69%
    19:00 +22°C° 0.5 mm 4 m/s 750 mmHg 75%
    20:00 +21°C° 0.5 mm 3 m/s 750 mmHg 81%
    21:00 +19°C° 0.5 mm 3 m/s 751 mmHg 87%
    22:00 +18°C° 0 mm 3 m/s 751 mmHg 89%
    23:00 +18°C° 0 mm 3 m/s 751 mmHg 91%

    27 Maio, Segunda-feira

    Tempo Temperatura Precipitação Vento Pressão Humidade
    00:00 +17°C° 0 mm 2 m/s 752 mmHg 92%
    01:00 +17°C° 0 mm 2 m/s 752 mmHg 93%
    02:00 +16°C° 0 mm 2 m/s 753 mmHg 93%
    03:00 +16°C° 0 mm 2 m/s 753 mmHg 93%
    04:00 +16°C° 0 mm 2 m/s 753 mmHg 92%
    05:00 +16°C° 0 mm 2 m/s 754 mmHg 91%
    06:00 +17°C° 0 mm 2 m/s 754 mmHg 91%
    07:00 +19°C° 0 mm 3 m/s 754 mmHg 83%
    08:00 +20°C° 0 mm 4 m/s 755 mmHg 76%
    09:00 +22°C° 0 mm 4 m/s 755 mmHg 69%
    10:00 +23°C° 0 mm 4 m/s 755 mmHg 65%
    11:00 +25°C° 0 mm 4 m/s 756 mmHg 60%
    12:00 +27°C° 0 mm 4 m/s 756 mmHg 55%
    13:00 +27°C° 0 mm 4 m/s 756 mmHg 54%
    14:00 +28°C° 0 mm 4 m/s 756 mmHg 53%
    15:00 +28°C° 0 mm 4 m/s 756 mmHg 52%
    16:00 +28°C° 0 mm 4 m/s 756 mmHg 55%
    17:00 +28°C° 0 mm 3 m/s 756 mmHg 58%
    18:00 +28°C° 0 mm 3 m/s 756 mmHg 60%
    19:00 +26°C° 0 mm 3 m/s 756 mmHg 65%
    20:00 +24°C° 0 mm 2 m/s 756 mmHg 69%
    21:00 +21°C° 0 mm 2 m/s 757 mmHg 73%
    22:00 +20°C° 0 mm 2 m/s 757 mmHg 76%
    23:00 +20°C° 0 mm 3 m/s 757 mmHg 79%

    28 Maio, Terça-feira

    Tempo Temperatura Precipitação Vento Pressão Humidade
    00:00 +19°C° 0 mm 3 m/s 757 mmHg 82%
    01:00 +18°C° 0 mm 3 m/s 757 mmHg 83%
    02:00 +18°C° 0 mm 3 m/s 757 mmHg 84%
    03:00 +17°C° 0 mm 2 m/s 757 mmHg 86%
    04:00 +18°C° 0 mm 2 m/s 757 mmHg 84%
    05:00 +18°C° 0 mm 2 m/s 758 mmHg 82%
    06:00 +18°C° 0 mm 2 m/s 758 mmHg 81%
    07:00 +20°C° 0 mm 2 m/s 758 mmHg 75%
    08:00 +23°C° 0 mm 2 m/s 758 mmHg 70%
    09:00 +24°C° 0 mm 3 m/s 758 mmHg 64%
    10:00 +26°C° 0 mm 3 m/s 758 mmHg 59%
    11:00 +27°C° 0 mm 4 m/s 758 mmHg 53%
    12:00 +28°C° 0 mm 4 m/s 757 mmHg 48%
    13:00 +29°C° 0 mm 4 m/s 757 mmHg 47%
    14:00 +29°C° 0 mm 4 m/s 757 mmHg 46%
    15:00 +29°C° 0 mm 4 m/s 757 mmHg 46%
    16:00 +29°C° 0 mm 4 m/s 756 mmHg 50%
    17:00 +29°C° 0 mm 3 m/s 756 mmHg 55%
    18:00 +29°C° 0 mm 3 m/s 756 mmHg 59%
    19:00 +27°C° 0 mm 3 m/s 756 mmHg 65%
    20:00 +25°C° 0 mm 3 m/s 756 mmHg 70%
    21:00 +22°C° 0 mm 3 m/s 756 mmHg 75%
    22:00 +21°C° 0 mm 2 m/s 756 mmHg 76%
    23:00 +21°C° 0 mm 2 m/s 756 mmHg 78%
    Mostrar mais